Location: Newark
(49.8348°N, 24.0280°E)
Time: 00:09:14
(UTC+00:00)

deb Explorer IX - Pass Details

Date: 31 January 2020
Orbit: 549 x 1099 km, 38.8° (Epoch: 20 February)

Event Time Altitude Azimuth Distance (km) Brightness Sun altitude
Rises 18:58:28 0° 239° (WSW) 3,536 ? -35.7°
Reaches altitude 10° 19:01:13 10° 230° (SW) 2,677 ? -36.1°
Enters shadow 19:03:15 19° 217° (SW) 2,144 ? -36.5°
